This demonstration page uses our WeatherBlox Daily Observations layout. Learn more.

Left ArrowRight Arrow

Hourly Observations for September 23, 2017

Temp ( °F °C ) Dew Point ( °F °C ) Humidity (%) Winds ( mph kmh ) Pressure ( in mb ) Visibility ( mi km ) Precip ( " mm )
12:54 am 00:54 Clear 77 25 67 19.4 71 71 S 17 28 29.82 1010 10 16.0934 0 0
1:54 am 01:54 Clear 76 24.4 67 19.4 74 74 S 14 22 29.83 1010 10 16.0934 0 0
2:54 am 02:54 Clear 75 23.9 67 19.4 76 76 S 12 19 29.84 1011 10 16.0934 0 0
3:54 am 03:54 Clear 74 23.3 67 19.4 79 79 S 13 20 29.84 1011 10 16.0934 0 0
4:54 am 04:54 Clear 73 22.8 67 19.4 81 81 S 10 17 29.85 1011 10 16.0934 0 0
5:54 am 05:54 Clear 71 21.7 66 18.9 84 84 SSE 8 13 29.88 1012 10 16.0934 0 0
6:54 am 06:54 Clear 70 21.1 66 18.9 87 87 SSE 8 13 29.9 1012 10 16.0934 0 0
7:54 am 07:54 Sunny 71 21.7 67 19.4 87 87 S 9 15 29.9 1013 9 14.48406 0 0
8:54 am 08:54 Sunny 75 23.9 67 19.4 76 76 S 9 15 29.91 1013 10 16.0934 0 0
9:54 am 09:54 Sunny 81 27.2 66 18.9 61 61 SSW 14 22 29.91 1013 10 16.0934 0 0
10:54 am 10:54 Sunny 85 29.4 67 19.4 55 55 S 15 24 29.9 1013 10 16.0934 0 0
11:54 am 11:54 Sunny 88 31.1 67 19.4 50 50 SSE 16 26 29.9 1013 10 16.0934 0 0
12:54 pm 12:54 Sunny 90 32.2 66 18.9 45 45 S 18 30 29.89 1012 10 16.0934 0 0
1:54 pm 13:54 Partly Cloudy 92 33.3 65 18.3 41 41 S 17 28 29.87 1012 10 16.0934 0 0
2:54 pm 14:54 Sunny 92 33.3 65 18.3 41 41 S 18 30 29.84 1011 10 16.0934 0 0
3:54 pm 15:54 Mostly Sunny 92 33.3 63 17.2 38 38 S 18 30 29.81 1010 10 16.0934 0 0
4:54 pm 16:54 Mostly Sunny 91 32.8 63 17.2 39 39 SSE 24 39 29.81 1010 10 16.0934 0 0
5:54 pm 17:54 Sunny 89 31.7 62 16.7 41 41 S 18 30 29.83 1010 10 16.0934 0 0
6:54 pm 18:54 Sunny 86 30 61 16.1 43 43 SSE 15 24 29.83 1010 10 16.0934 0 0
7:54 pm 19:54 Clear 83 28.3 61 16.1 48 48 SSE 15 24 29.85 1011 10 16.0934 0 0
8:54 pm 20:54 Clear 82 27.8 63 17.2 53 53 SSE 18 30 29.85 1011 10 16.0934 0 0
9:54 pm 21:54 Clear 80 26.7 63 17.2 56 56 SSE 16 26 29.85 1011 10 16.0934 0 0
10:54 pm 22:54 Clear 78 25.6 63 17.2 60 60 SSE 14 22 29.85 1011 10 16.0934 0 0
11:54 pm 23:54 Clear 77 25 63 17.2 62 62 SSE 16 26 29.84 1011 10 16.0934 0 0

Powered by AerisWeather